Regional Weather Roundup
Issued by NWS

Home | Current Version | Previous Version | Text Only | Print | Product List | Glossary Off
Versions: 1 2 3 4 5 6 7 8 9 10 11 12 13 14 15 16 17 18 19 20 21 22 23 24 25 26 27 28 29 30 31 32 33 34 35 36 37 38 39 40 41 42 43 44 45 46 47 48 49 50

899
ASUS43 KOAX 022002
RWRNE

WEATHER ROUNDUP FOR NEBRASKA
NATIONAL WEATHER SERVICE OMAHA NE
300 PM CDT MON MAY 02 2016

NOTES: SATELLITE DATA IS BEING USED TO AUGMENT CLOUD COVER ABOVE
       12000 FEET.
       "FAIR" INDICATES FEW OR NO CLOUDS BELOW 12,000 FEET WITH NO
       SIGNIFICANT WEATHER AND/OR OBSTRUCTIONS TO VISIBILITY.

  * THESE STATIONS DO NOT REPORT WEATHER SUCH AS RAIN...SNOW OR FOG.

NEZ001>004-019>022-054>056-022100-
NEBRASKA PANHANDLE

CITY           SKY/WX    TMP DP  RH WIND       PRES   REMARKS
SCOTTSBLUFF    SUNNY     61  30  31 W13G21    30.11F
ALLIANCE       MOSUNNY   61  31  32 NW16      30.08F
CHADRON        CLOUDY    63  31  30 W13       30.07F
KIMBALL        SUNNY     54  31  42 NW9       30.15F
SIDNEY         CLOUDY    56  30  37 NW9       30.15F
$$

NEZ057>060-069>072-079>082-022100-
SOUTHWEST NEBRASKA

CITY           SKY/WX    TMP DP  RH WIND       PRES   REMARKS
NORTH PLATTE   MOSUNNY   60  34  37 W9        30.09F
IMPERIAL       MOSUNNY   60  33  36 NW8       30.12F
LEXINGTON      SUNNY     59  36  41 W5        30.11F
MCCOOK         SUNNY     62  35  36 MISG      30.11F
$$

NEZ005>010-023>029-035>040-094-022100-
NORTH CENTRAL NEBRASKA

CITY           SKY/WX    TMP DP  RH WIND       PRES   REMARKS
VALENTINE      MOSUNNY   62  29  28 NW8G17    30.06F
AINSWORTH      CLOUDY    60  33  36 NW3       30.08S
BROKEN BOW     PTSUNNY   59  36  42 W8        30.09F
ORD            CLOUDY    59  35  40 N3        30.08F
$$

NEZ041-046>049-061>064-073>077-083>087-022100-
SOUTH CENTRAL NEBRASKA

CITY           SKY/WX    TMP DP  RH WIND       PRES   REMARKS
GRAND ISLAND   CLOUDY    58  34  40 CALM      30.11F
AURORA         CLOUDY    59  36  43 N3        30.11F
HASTINGS       PTSUNNY   58  37  45 N8        30.11F
KEARNEY *      SUNNY     57  36  44 SE5       30.12F
YORK           PTSUNNY   59  37  44 NW3       30.11F
$$

NEZ011>018-030>034-042>045-022100-
NORTHEAST NEBRASKA

CITY           SKY/WX    TMP DP  RH WIND       PRES   REMARKS
NORFOLK        MOSUNNY   61  35  37 VRB3      30.08F
ALBION         CLOUDY    59  34  38 CALM      30.09F
BLAIR          CLOUDY    62  41  46 SW6       30.09S
COLUMBUS *     MOSUNNY   61  36  39 W9        30.11S
FREMONT        MOSUNNY   61  37  41 NW3       30.10F
TEKAMAH        CLOUDY    62  39  42 VRB3      30.09S
$$

NEZ050>053-065>068-078-088>093-022100-
SOUTHEAST NEBRASKA

CITY           SKY/WX    TMP DP  RH WIND       PRES   REMARKS
LINCOLN        PTSUNNY   64  36  35 CALM      30.10F
OMAHA EPPLEY   PTSUNNY   64  39  39 VRB3      30.09F
BEATRICE       PTSUNNY   60  41  50 N9        30.10F
FALLS CITY     CLOUDY    60  46  59 VRB5      30.09F
$$

NEZ044-045-051>053-067-022100-
OMAHA AREA

CITY           SKY/WX    TMP DP  RH WIND       PRES   REMARKS
OMAHA EPPLEY   PTSUNNY   64  39  39 VRB3      30.09F
BLAIR          CLOUDY    62  41  46 SW6       30.09S
FREMONT        MOSUNNY   61  37  41 NW3       30.10F
$$




USA.gov is the U.S. government's official web portal to all federal, state and local government web resources and services.